Погода в Мариуполе

Погода в Мариуполе : погода сейчас, прогноз погоды и архив. Всё, что Вы хотите узнать о погоде в Мариуполе!

Поиск расширенной информации на нашем сайте:

Полезная информация: Самая актуальная информация оборудование люменис у нас на сайте.

Другие новости

Новости СМИ2

Главная страница сайта

Новости сайта

02.10.2013

Напоминаем, что на нашем новом сайте вы можете получить высокодетализированные прогнозы погоды по пунктам России, СНГ и мира (включающие важные для авиации метеовеличины, такие как направление и скорость ветра, видимость, явления погоды, количество и форма облачности, нижняя и верхняя граница облачности), а также ознакомиться с разнообразными материалами по авиационной метеорологии и подборкой полезных ссылок на эту тему.

Сайт Метеоцентр.Азия посвящён разработке технологий оптимизации авиаметеорологического обслуживания, включая проектирование и перспективное создание нескольких автоматизированных авиаметеорологических систем:
- система выпуска высокодетальных прогностических карт явлений погоды для нижнего воздушного пространства по России и ближнему зарубежью;
- система верификации прогнозов TAF (выпускаемых синоптиками официальных АМСГ РФ и ближнего зарубежья) и AUTOTAF (выпускаемых сайтом Метеоцентр.Азия) - выявление ошибок, онлайн-сопоставление с фактической погодой METAR, автоматическое внесение коррективов в прогнозы при резком отклонении фактической погоды от прогноза, подсчёт оправдываемости прогнозов по элементам и в целом;
- система обработки, анализа и отображения авиаметеорологической информации для применения провайдерами метеорологической информации.

Рекомендуем: Деревянные окна

Погода в Мариуполе - сегодня

Время (UTC), дата Ветер
(°,м/с) 
Видим.   Явления Облачность Т
(°С)
Тd
(°С)
f(%) Тe
(°С)
Pmin
(гПа)
dP
(гПа)
Po
(мм)
O2
(г/м3)
Тmin Tmax R s Состояние
почвы
00 04.05.16 050 (СВ) 10 км    ясно 
+11.5 +8.7 83 +10  1009.7  -1.3  751  289           
03 04.05.16 070 (В) 10 км    10/0 верхняя 
[Cc]
+10.3 +7.6 83 +9  1009.2  -0.6  751  290           
06 04.05.16 090 (В) 10  20000 м    10/0 средняя 
[Ac As]
+13.3 +8 70 +12  1008.5  -0.6  750  287  +10         
09 04.05.16 090 (В) 12  20000 м    9/0 средняя 
[Ac trans]
+15.3 +9.1 66 +14  1008.2  -0.2  750  285           
12 04.05.16 090 (В) 20000 м    10/4 600 м средняя 
[Sc|Ac und]
+17 +6.4 50 +16  1007.7  -0.5  750  283           
15 04.05.16 090 (В) 20000 м    10/0 средняя 
[Ac und]
+16.6 +10.2 66 +17  1008.1  0.4  750  283           
18 04.05.16 110 (В) 10 км  в посл. час ливневой дождь  10/8 1000 м кучево-дожд., средняя 
[Cb cap|As op]
+15 +11 77 +16  1009.2  1.1  751  285    +17.3  0.0     
21 04.05.16 090 (В) 10 км  {ливн. осадки}  10/10 1500 м 
[Sc]
+14.8 +11 78 +16  1009.2  751  285           
00 05.05.16 050 (СВ) 20000 м  {ливн. осадки}  10/0 средняя 
[As op]
+14.2 +9.1 71 +14  1009.4  0.1  751  286      0.6     
03 05.05.16 050 (СВ) 10 км    8/5 1500 м средняя 
[Sc|Ac trans]
+12.8 +9 78 +13  1009.7  0.3  751  287           
06 05.05.16 090 (В) 10 км    8/0 средняя 
[Ac trans]
+15.9 +10.2 69 +17  1010.4  0.8  752  284  +12.6    0.6     
09 05.05.16 140 (ЮВ) 10 км    9/3 600 м средняя 
[Cu med, cong|As op]
+15.1 +12 82 +20  1010.9  0.5  752  285           
12 05.05.16 110 (В) 20000 м    8/0 средняя, верхняя 
[Cu med, cong|Ac As|Ci sp]
+17.1 +14.7 86 +26  1011.2  0.3  752  282           
15 05.05.16 110 (В) 20000 м    8/5 1500 м средняя 
[Sc|Ac trans]
+15.5 +12 80 +20  1010.7  -0.5  752  284           
18 05.05.16 050 (СВ) 20000 м    6/3 1000 м средняя 
[Sc|Ac trans]
+14.7 +10.5 76 +17  1011.2  0.4  752  286    +17.1       
21 05.05.16 340 (С) 10 км    8/0 средняя 
[Ac trans]
+12.8 +9.9 83 +14  1011.1  -0.1  752  288           
00 06.05.16 050 (СВ) 10 км    8/0 средняя 
[Ac trans]
+13 +10.5 85 +15  1010.6  -0.5  752  287           
03 06.05.16 050 (СВ) 20000 м  {ливн. осадки}  8/4 600 м средняя 
[Sc|Ac trans]
+12 +9.8 86 +13  1010.4  -0.2  752  288           
06 06.05.16 100 (В) 10 км  {ливн. осадки}  8/5 600 м верхняя 
[Cu hum|Cc]
+15.5 +12.6 83 +20  1010.3  752  284  +11.3       
09 06.05.16 140 (ЮВ) 10 км    8/4 600 м кучево-дожд., верхняя 
[Cb cap|Ci]
+16 +12.9 82 +21  1010.5  0.2  752  284           
12 06.05.16 140 (ЮВ) 10 км    8/4 600 м верхняя 
[Cu hum|Ci fib]
+16.5 +13.7 84 +23  1010  -0.5  751  283           
15 06.05.16 130 (ЮВ) 10 км    9/3 600 м верхняя 
[Cu med, cong|Cc]
+16 +12.5 80 +21  1009.7  -0.3  751  283           
18 06.05.16 090 (В) 20000 м    8/8 900 м 
[Sc]
+14.9 +11.5 80 +18  1010.2  0.5  752  285    +16.8       
21 06.05.16 110 (В) 20000 м    10/6 630 м средняя 
[Sc|Ac As]
+15.1 +12.5 84 +19  1010.4  0.2  752  285           
00 07.05.16 090 (В) 20000 м    10/8 660 м средняя 
[Sc|Ac As]
+14.2 +12 87 +18  1010.6  0.1  752  286           
Время (UTC), дата Ветер
(°,м/с) 
Видим.   Явления Облачность Т
(°С)
Тd
(°С)
f(%) Тe
(°С)
Pmin
(гПа)
dP
(гПа)
Po
(мм)
O2
(г/м3)
Тmin Tmax R s Состояние
почвы

Для получения пояснительной информации подведите курсор к названию столбца.

ПОГОДА в Мариуполе - архив

Всё, что Вы хотите узнать о погоде в Мариуполе - удобно и подробно!

Выберите нужную дату (начиная с 1 января 2015* года) и нажмите кнопку "Найти".
Будут отображены архивные сводки погоды по пункту Мариуполь, начиная с указанной даты.


Отображать данные в формате CSV (для использования в таблицах Excel)


Внимание! Наш архив погоды предназначен исключительно для личного некоммерческого использования в познавательных целях. Если Вам необходимы официальные справки о состоянии погоды (для производственных, юридических, коммерческих и т.п. целей), обращайтесь в органы Росгидромета.

*Примечание: данная дата относится к архиву по метеостанциям СССР (Россия, СНГ, Балтия).
Архив по метеостанциям Зарубежной Европы и Азии (кроме Китая) хранится 10 дней, по другим регионам земного шара (Китай, Африка, Америка, Австралия, Океания) - 1 день.

Мариуполь - район местоположения метеостанции


Название, широта, долгота, высота метеостанции:
Мариуполь (город) 47°ш. 37.5°д. 70 м над ур. моря [Украина]

Дополнительная информация

В oтличие oт бoльшинства пoгoдных сайтoв мы публикуем пoдрoбную метеoинфoрмацию в детальнoм прoфессиoнальнoм фoрмате.

Характеристики температуры и влажнoсти вoздуха измеряются на высoте 2 м в тени вдали oт зданий и деревьев.
Скoрoсть ветра измеряется на высoте 10 м (на урoвне рoста челoвека скoрoсть ветра ниже в 1.5-2 раза). Если метеoстанция нахoдится в гoрoде или в лесу, тo скoрoсть ветра занижена на 2-4 м/с пo сравнению с oткрытым местoм. Скoрoсть ветра над акватoриями крупных рек и oзёр, а также на вершинах хoлмoв на 2-5 м/с выше, чем в oбычных услoвиях.
Атмoсфернoе давление в разных тoчках местнoсти мoжет значительнo oтличаться oт давления на метеoстанции, в зависимoсти oт услoвий рельефа (при пoдъёме на 10 м давление пoнижается примернo на 1 мм рт.ст.).